• In Uzbekistan
  • List of Countries
  • For 7 days
  • Water Temperature
  • Satellite Maps
  • Weather Map
  • Weather Widgets
  • user-avatar
    Login

    Hourly Weather Rugun

    Today, 10 December, Monday

    Time Temperature Precipitation Wind Pressure Humidity
    00:00 -1°C° 0 mm 2 mps 664 mmHg 67%
    01:00 -1°C° 0 mm 2 mps 663 mmHg 67%
    02:00 +1°C° 0 mm 2 mps 663 mmHg 66%
    03:00 -1°C° 0 mm 2 mps 663 mmHg 66%
    04:00 -1°C° 0 mm 2 mps 662 mmHg 64%
    05:00 +1°C° 0 mm 2 mps 662 mmHg 63%
    06:00 +1°C° 0 mm 2 mps 662 mmHg 61%
    07:00 +2°C° 0 mm 2 mps 662 mmHg 59%
    08:00 +3°C° 0 mm 2 mps 662 mmHg 57%
    09:00 +5°C° 0 mm 1 mps 662 mmHg 54%
    10:00 +6°C° 0 mm 1 mps 662 mmHg 54%
    11:00 +7°C° 0 mm 1 mps 662 mmHg 53%
    12:00 +8°C° 0 mm 1 mps 662 mmHg 52%
    13:00 +8°C° 0 mm 1 mps 662 mmHg 55%
    14:00 +7°C° 0 mm 1 mps 661 mmHg 59%
    15:00 +7°C° 0 mm 1 mps 661 mmHg 62%
    16:00 +6°C° 0 mm 1 mps 661 mmHg 61%
    17:00 +4°C° 0 mm 2 mps 661 mmHg 61%
    18:00 +3°C° 0 mm 2 mps 661 mmHg 60%
    19:00 +3°C° 0 mm 2 mps 660 mmHg 58%
    20:00 +3°C° 0 mm 2 mps 660 mmHg 55%
    21:00 +3°C° 0 mm 2 mps 660 mmHg 53%
    22:00 +3°C° 0 mm 2 mps 660 mmHg 52%
    23:00 +3°C° 0 mm 2 mps 660 mmHg 52%

    Tomorrow, 11 December, Tuesday

    Time Temperature Precipitation Wind Pressure Humidity
    00:00 +3°C° 0 mm 2 mps 660 mmHg 52%
    01:00 +3°C° 0 mm 2 mps 660 mmHg 51%
    02:00 +2°C° 0 mm 3 mps 659 mmHg 51%
    03:00 +2°C° 0 mm 3 mps 659 mmHg 50%
    04:00 +2°C° 0 mm 3 mps 659 mmHg 49%
    05:00 +3°C° 0 mm 3 mps 659 mmHg 48%
    06:00 +3°C° 0 mm 3 mps 659 mmHg 46%
    07:00 +5°C° 0 mm 2 mps 660 mmHg 45%
    08:00 +6°C° 0 mm 2 mps 660 mmHg 44%
    09:00 +7°C° 0 mm 2 mps 660 mmHg 42%
    10:00 +8°C° 0 mm 2 mps 660 mmHg 41%
    11:00 +9°C° 0 mm 2 mps 660 mmHg 40%
    12:00 +12°C° 0 mm 2 mps 660 mmHg 39%
    13:00 +10°C° 0 mm 2 mps 660 mmHg 41%
    14:00 +10°C° 0 mm 2 mps 659 mmHg 43%
    15:00 +10°C° 0 mm 3 mps 659 mmHg 46%
    16:00 +9°C° 0 mm 3 mps 659 mmHg 46%
    17:00 +8°C° 0 mm 3 mps 658 mmHg 47%
    18:00 +7°C° 0 mm 3 mps 658 mmHg 48%
    19:00 +6°C° 0 mm 4 mps 658 mmHg 47%
    20:00 +6°C° 0 mm 4 mps 658 mmHg 47%
    21:00 +6°C° 0 mm 4 mps 657 mmHg 47%
    22:00 +6°C° 0 mm 4 mps 657 mmHg 46%
    23:00 +6°C° 0 mm 4 mps 657 mmHg 45%

    Day after tomorrow, 12 December, Wednesday

    Time Temperature Precipitation Wind Pressure Humidity
    00:00 +6°C° 0 mm 4 mps 657 mmHg 44%
    01:00 +6°C° 0 mm 4 mps 657 mmHg 44%
    02:00 +6°C° 0 mm 4 mps 658 mmHg 43%
    03:00 +6°C° 0 mm 4 mps 658 mmHg 42%
    04:00 +5°C° 0 mm 4 mps 658 mmHg 45%
    05:00 +5°C° 0 mm 3 mps 659 mmHg 48%
    06:00 +4°C° 0 mm 3 mps 659 mmHg 52%
    07:00 +5°C° 0 mm 3 mps 660 mmHg 52%
    08:00 +6°C° 0 mm 2 mps 661 mmHg 53%
    09:00 +7°C° 0 mm 2 mps 662 mmHg 53%
    10:00 +8°C° 0 mm 2 mps 662 mmHg 52%
    11:00 +8°C° 0 mm 2 mps 662 mmHg 51%
    12:00 +9°C° 0 mm 2 mps 662 mmHg 50%
    13:00 +8°C° 0 mm 2 mps 661 mmHg 54%
    14:00 +8°C° 0 mm 2 mps 661 mmHg 59%
    15:00 +7°C° 0 mm 2 mps 661 mmHg 63%
    16:00 +6°C° 0.1 mm 2 mps 661 mmHg 66%
    17:00 +6°C° 0.1 mm 2 mps 660 mmHg 69%
    18:00 +6°C° 0.1 mm 1 mps 660 mmHg 72%
    19:00 +6°C° 0.1 mm 1 mps 660 mmHg 72%
    20:00 +6°C° 0.1 mm 1 mps 660 mmHg 73%
    21:00 +4°C° 0.1 mm 2 mps 659 mmHg 73%
    22:00 +4°C° 0 mm 2 mps 659 mmHg 74%
    23:00 +4°C° 0 mm 2 mps 659 mmHg 74%

    13 December, Thursday

    Time Temperature Precipitation Wind Pressure Humidity
    00:00 +4°C° 0 mm 2 mps 658 mmHg 74%
    01:00 +4°C° 0 mm 2 mps 658 mmHg 75%
    02:00 +4°C° 0 mm 2 mps 658 mmHg 75%
    03:00 +3°C° 0 mm 2 mps 658 mmHg 75%
    04:00 +4°C° 0.1 mm 2 mps 658 mmHg 73%
    05:00 +4°C° 0.1 mm 2 mps 658 mmHg 72%
    06:00 +4°C° 0.1 mm 2 mps 658 mmHg 70%
    07:00 +4°C° 0 mm 2 mps 658 mmHg 69%
    08:00 +3°C° 0 mm 3 mps 659 mmHg 69%
    09:00 +3°C° 0 mm 3 mps 659 mmHg 68%
    10:00 +3°C° 0 mm 3 mps 660 mmHg 67%
    11:00 +4°C° 0 mm 3 mps 660 mmHg 66%
    12:00 +4°C° 0 mm 4 mps 660 mmHg 65%
    13:00 +3°C° 0 mm 3 mps 661 mmHg 66%
    14:00 +3°C° 0 mm 3 mps 661 mmHg 68%
    15:00 +3°C° 0 mm 3 mps 662 mmHg 70%
    16:00 +2°C° 0.1 mm 3 mps 662 mmHg 73%
    17:00 +1°C° 0.1 mm 3 mps 663 mmHg 76%
    18:00 0°C° 0.1 mm 3 mps 663 mmHg 79%
    19:00 +1°C° 0 mm 2 mps 664 mmHg 78%
    20:00 +1°C° 0 mm 2 mps 664 mmHg 77%
    21:00 +1°C° 0 mm 2 mps 664 mmHg 76%
    22:00 +1°C° 0 mm 1 mps 665 mmHg 72%
    23:00 +1°C° 0 mm 1 mps 665 mmHg 69%

    14 December, Friday

    Time Temperature Precipitation Wind Pressure Humidity
    00:00 +1°C° 0 mm 1 mps 665 mmHg 65%
    01:00 +1°C° 0 mm 1 mps 665 mmHg 64%
    02:00 0°C° 0 mm 1 mps 666 mmHg 62%
    03:00 0°C° 0 mm 1 mps 666 mmHg 61%
    04:00 0°C° 0 mm 1 mps 666 mmHg 62%
    05:00 0°C° 0 mm 1 mps 666 mmHg 62%
    06:00 -1°C° 0 mm 1 mps 666 mmHg 63%
    07:00 -2°C° 0 mm 2 mps 667 mmHg 62%
    08:00 -1°C° 0 mm 2 mps 667 mmHg 60%
    09:00 -1°C° 0 mm 2 mps 667 mmHg 59%
    10:00 +1°C° 0 mm 2 mps 667 mmHg 58%
    11:00 +2°C° 0 mm 2 mps 667 mmHg 57%
    12:00 +1°C° 0 mm 3 mps 666 mmHg 56%
    13:00 +1°C° 0 mm 3 mps 666 mmHg 59%
    14:00 +1°C° 0 mm 3 mps 666 mmHg 62%
    15:00 +1°C° 0 mm 3 mps 665 mmHg 65%
    16:00 +1°C° 0.1 mm 2 mps 665 mmHg 67%
    17:00 -1°C° 0.1 mm 2 mps 665 mmHg 70%
    18:00 -1°C° 0.1 mm 2 mps 665 mmHg 73%
    19:00 -1°C° 0.1 mm 2 mps 665 mmHg 76%
    20:00 -1°C° 0.1 mm 2 mps 665 mmHg 78%
    21:00 -1°C° 0.1 mm 2 mps 665 mmHg 80%
    22:00 +1°C° 0.1 mm 1 mps 665 mmHg 81%
    23:00 0°C° 0.1 mm 1 mps 665 mmHg 82%

    15 December, Saturday

    Time Temperature Precipitation Wind Pressure Humidity
    00:00 0°C° 0.1 mm 1 mps 665 mmHg 83%
    01:00 0°C° 0 mm 1 mps 666 mmHg 83%
    02:00 0°C° 0 mm 1 mps 666 mmHg 83%
    03:00 0°C° 0 mm 1 mps 666 mmHg 83%
    04:00 0°C° 0 mm 1 mps 666 mmHg 82%
    05:00 0°C° 0 mm 1 mps 666 mmHg 82%
    06:00 0°C° 0 mm 1 mps 667 mmHg 82%
    07:00 0°C° 0 mm 1 mps 667 mmHg 79%
    08:00 +1°C° 0 mm 1 mps 667 mmHg 76%
    09:00 +1°C° 0 mm 1 mps 668 mmHg 73%
    10:00 +1°C° 0 mm 2 mps 668 mmHg 70%
    11:00 +1°C° 0 mm 2 mps 668 mmHg 67%
    12:00 +2°C° 0 mm 2 mps 668 mmHg 65%
    13:00 +2°C° 0 mm 2 mps 668 mmHg 66%
    14:00 +2°C° 0 mm 2 mps 668 mmHg 68%
    15:00 +2°C° 0 mm 2 mps 668 mmHg 70%
    16:00 +1°C° 0 mm 2 mps 668 mmHg 72%
    17:00 +1°C° 0 mm 1 mps 668 mmHg 75%
    18:00 0°C° 0 mm 1 mps 668 mmHg 78%
    19:00 0°C° 0 mm 1 mps 669 mmHg 78%
    20:00 0°C° 0 mm 1 mps 669 mmHg 79%
    21:00 0°C° 0 mm 1 mps 669 mmHg 79%
    22:00 -1°C° 0 mm 1 mps 669 mmHg 79%
    23:00 -1°C° 0 mm 1 mps 669 mmHg 78%
    Show more